FENGYUN 1C DEB, 31767

Orbit data source: Space-Track

FENGYUN 1C DEB, 31767 is space debris in SSO originally from a launch on Mon, 10 May 1999 UTC launched from the Taiyaun Space Center, China (TSC). Fengyun 1C debris stems from the Chinese weather satellite Fengyun-1C, which was intentionally destroyed by a Chinese anti-satellite missile in 2007. This event dramatically increased the amount of space debris, with thousands of trackable fragments posing hazards to satellites and human spaceflight. The Fengyun 1C debris cloud has become a focal point in discussions about space sustainability and the need for international regulations to prevent the creation of new debris.

Loading next visibility...
Identifier
31767, 1999-025CFS
Orbit
SSO
Country
Flag of CNCN / PRC
Related business
Manufacturer
Unknown
Mission
Spacecraft
Bus & Motor
Unknown
Mass
Unknown
Launch date (UTC)
1999-05-10 (27 years ago)
Launch vehicle
Unknown
Launch site
Taiyaun Space Center, China (TSC)
Object type
Payload
Rocket body
Debris
Shape & HBR
Unknown shape, 0.1 m
Radar Cross Section
Small (<0.1 m²)

Expand to show TLE details & history
Last TLE update: 3 days ago

TLE from 3 days ago
0 FENGYUN 1C DEB
1 31767U 99025CFS 26116.82131244  .00000324  00000-0  22570-3 0  9998
2 31767  98.8042 147.6808 0041771  52.2224 125.8061 14.05036721967226
Epoch: 2026-04-26T19:42Z
TLE epoch observation values (Epoch: 2026-04-26T19:42:41.394Z)
Latitude
1.4595°
Longitude
177.41341°
Altitude
896.934 km
Speed
7.395 km/s
True Right ascension
21h 51m 37s
True Declination
1° 27' 03"
Sunlit
Object was in daylight at epoch
Visualization orbit readout
Latitude
Unknown
Longitude
Unknown
Altitude
Unknown
Speed
Unknown
Apparent Right ascension
Unknown
Apparent Declination
Unknown
Sunlit
N/A
Visualization observer readout
Local Sidereal Time
04:40:56
Azimuth
Unknown
Elevation
Unknown
Doppler factor
Unknown
Orbital elements
Apogee altitude
903.88 km
Perigee altitude
843.298 km
Semi-major axis
7,251.726 km
Eccentricity
0.00418
Inclination
98.8042°
RAAN
147.6808°
Arg. of periapsis
52.2224°
True anomaly
126.19311°
Mean anomaly
125.8061°
Eccentric anomaly
125.99972°
Mean motion
3.51464 °/min
Orbital period
102.43 mins
BSTAR
0.0002257
Loading maneuver chart data...
Computing Atmospheric mass density...

Documentation

Showing up to 5 results
|